Weather in Sambir

Ukraine / Lviv District     49˚31′18″N   23˚11′56″E
temp.,
°C
wind,
m/s
gust,
m/s
humid.,
%
clouds,
%
prec.,
mm/h
press.,
hPa
HPBL,
m
1 december, tue
tue123:00−3˚sse22908 0.0 102949
02:00−4˚sse22864 0.0 102828
05:00−4˚sse22850 0.0 102730
08:00−4˚se22840 0.0 102737
11:00−1˚se34660 0.0 1026253
14:00+1˚ese45630 0.0 1025339
17:00−3˚ese47840 0.0 1025133
20:00−4˚ese48880 0.0 1026185
2 december, wed
wed223:00−4˚ese47860 0.0 1027210
02:00−5˚ese37870 0.0 1027187
05:00−6˚ese36900 0.0 1026159
08:00−6˚ese35910 0.0 1027149
11:00−2˚ese47750 0.0 1025345
14:00−1˚ese46740 0.0 1024429
17:00−3˚ese36940 0.0 1023157
20:00−4˚se37951 0.0 1023178
3 december, thu
thu323:00−5˚se36900 0.0 1022127
02:00−5˚se34780 0.0 102179
05:00−4˚se346994 0.0 102079
08:00−4˚se346863 0.0 101962
11:00se46610 0.0 1018184
14:00+1˚ese576516 0.0 1016229
17:00−1˚ese587873 0.0 1015175
20:00−2˚ese588072 0.0 1014165
4 december, fri
fri423:00−2˚ese588353 0.0 1013156
02:00−2˚ese578271 0.0 1011152
05:00−2˚ese578595 0.0 1008141
08:00−2˚ese478387 0.0 1007134
11:00+2˚ese57671 0.0 1006183
14:00+5˚ese456534 0.0 1005107
17:00+3˚se3476100 0.0 100644
20:00+4˚sse2385100 0.1 100831
5 december, sat
sat523:00+3˚se3389100 0.0 100841
02:00+3˚se448999 0.0 100863
05:00+3˚se338861 0.0 100832
08:00+3˚se448980 0.0 100967
11:00+6˚se478298 0.0 1010140
14:00+7˚se478099 0.0 1009161
17:00+5˚se5886100 0.0 1009144
20:00+4˚se3479100 0.0 100965